Voltar ao catálogo

COSMOS 1579 COOLANT

AtivoLEO
NORAD 26521·DEBRIS·🇷🇺 Russia

Lançado Jun 29, 1984 de Baikonur Cosmodrome

Loading…

Próximas Passagens (próximas 24 horas)

TLE

ObsoletoSource: Space-Track

Época: Aug 29, 2026, 01:32 UTC

1 26521U 84069N   26241.06436958  .00000059  00000-0  11574-3 0  9994
2 26521  65.0487  42.2676 0052415 323.8701  35.8826 13.92010449658134

Acompanhe COSMOS 1579 COOLANT em tempo real com AllMySat

Download on the App Store